Погода в Молодежном

Россия / Московская область     55°16′05″N   36°52′20″E
темп.,
°C
ветер,
м/с
пор.,
м/с
влажн.,
%
обл.,
%
осадки,
мм/ч
давл.,
гПа
погр.,
м
5 марта, пт
пт500:00−5сз2394100 0.0 100297
03:00−7сз239467 0.0 100553
06:00−9зсз24960 0.0 100789
09:00−7зсз37921 0.0 1008290
12:00−3зсз467654 0.0 10091040
15:00−2зсз457075 0.1 10111190
18:00−6з238566 0.1 101246
21:00−8з228933 0.1 101423
6 марта, сб
сб600:00−9з119133 0.0 101521
03:00−9ссз119260 0.0 101621
06:00−9с1292100 0.1 101660
09:00−8ссз2588100 0.1 1017242
12:00−5сз347758 0.0 1017830
15:00−4сз357278 0.2 10171043
18:00−7з2589100 0.4 1016171
21:00−10зюз359172 0.4 101697
7 марта, вс
вс700:00−10юз389225 0.0 1013189
03:00−8юз5138549 0.0 1010564
06:00−7юз71582100 0.0 1006775
09:00−5юз91786100 0.1 10001137
12:00−3юз91791100 1.3 9951307
15:00−3з91462100 2.5 9961752
18:00−6з5137167 0.1 999687
21:00−7зюз5137869 0.1 999841
8 марта, пн
пн800:00−6зюз6158284 0.0 9951144
03:00−5з5109292 0.6 995869
06:00−9зсз51285100 0.3 996765
09:00−9сз61189100 0.6 10001121
12:00−8зсз7117084 0.1 10031109
15:00−7зсз7117882 0.1 10051298
18:00−8зсз41083100 0.1 1007772
21:00−10сз389098 0.3 1010445
9 марта, вт
вт900:00−13сз259689 0.0 1011126
03:00−13ссз269693 0.0 1013190
06:00−15ссз3794100 0.0 1015291
09:00−16ссз379097 0.0 1017369
12:00−13ссз468097 0.0 1018610
15:00−11ссз467484 0.0 1019883
18:00−13сз368578 0.0 1020225
21:00−16сз229039 0.0 102227